Wind_Speed
17 16 17 17 16 13 10 9 8 7 8 9 9 12 13 13 12 11 15 17 17 17 18 17 15 13 12 11 9 9 9 11 12 13 13 12 11 9 9 9 9 8 8 9 7 8 8 9 9
17 19 19 19 17 12 8 10 10 9 10 11 10 12 12 12 13 12 15 16 17 17 17 17 16 14 13 12 11 9 8 8 8 9 10 11 11 10 8 6 6 6 6 6 7 8 9 11 13
21 22 23 20 17 12 8 13 12 12 13 12 12 11 12 12 12 12 13 14 15 15 16 16 16 16 15 14 12 11 10 9 8 8 7 7 7 8 8 8 6 6 5 6 7 9 12 13 14
24 24 24 20 17 13 10 13 11 15 14 14 12 11 11 11 10 9 9 12 12 12 13 13 14 15 15 15 15 15 14 13 12 9 8 7 7 6 7 8 9 10 11 11 11 11 11 11 13
23 23 22 20 19 16 14 15 15 18 16 14 13 11 10 10 9 7 7 8 9 9 9 10 11 12 13 13 14 15 15 14 14 15 14 14 12 10 9 9 10 11 12 14 15 17 17 17 17
23 23 24 23 23 20 17 16 17 20 19 16 13 12 11 9 8 6 5 5 5 5 5 6 8 10 11 12 13 14 14 14 14 15 15 16 17 17 16 15 14 14 14 15 16 17 18 20 21
26 26 27 26 25 23 20 18 17 19 22 18 17 15 12 10 9 7 4 3 2 1 2 4 6 7 9 10 12 13 14 15 15 16 16 16 17 18 19 19 18 18 18 18 18 20 21 22 23
29 30 29 28 28 25 20 19 18 19 25 19 19 19 14 13 11 9 7 5 3 4 4 5 7 8 10 11 13 13 15 15 17 17 17 18 18 19 20 20 21 22 22 22 21 22 23 24 26
34 33 31 32 30 24 22 23 20 19 23 22 20 21 18 17 14 12 10 9 7 7 9 10 10 11 12 14 16 17 17 18 19 20 20 20 22 23 24 24 24 25 25 26 27 28 28 28 28
38 36 35 33 31 25 24 25 22 18 19 23 22 22 22 21 16 15 14 13 12 10 11 14 15 17 17 18 19 21 22 22 22 23 23 23 24 24 25 27 27 28 30 30 31 31 32 32 32
40 39 40 36 33 31 24 24 21 21 20 21 23 24 25 23 20 19 19 17 16 16 17 18 19 20 22 23 24 25 25 26 28 27 27 27 27 28 28 29 31 32 33 34 35 36 36 36 35
41 42 42 39 35 35 30 22 26 24 22 22 25 27 27 27 24 22 22 21 20 20 20 22 23 24 26 27 29 30 29 30 31 31 31 31 31 31 31 32 34 36 37 37 38 39 40 40 40
43 43 44 41 39 37 34 28 30 27 25 27 28 29 30 30 27 24 24 24 24 23 24 26 25 27 29 29 30 32 32 33 34 33 34 34 33 34 34 36 37 39 39 40 41 42 43 43 43
44 44 44 43 42 40 38 32 32 27 28 28 28 31 31 30 29 27 27 26 24 25 28 31 31 29 31 31 33 34 35 35 35 36 37 36 35 35 37 39 41 42 42 42 43 45 45 46 46
44 45 46 45 44 43 41 37 29 30 33 32 30 30 32 33 32 31 29 27 26 27 29 32 34 32 33 33 34 35 36 36 37 39 39 38 36 37 40 43 44 44 44 44 44 45 46 46 47
45 47 47 42 46 45 43 37 32 35 33 31 33 33 32 32 35 33 30 27 27 29 32 33 33 35 35 35 37 37 38 38 38 38 38 37 39 43 45 46 45 45 45 47 47 47 48 47 49
47 47 44 42 46 48 45 38 38 35 34 32 32 31 31 34 37 32 29 28 28 29 31 33 33 33 36 38 39 39 40 40 39 38 39 39 43 48 49 49 47 48 48 48 48 48 49 50 51
40 44 44 43 45 48 46 41 42 37 35 33 31 31 32 34 35 29 29 29 29 30 31 35 36 37 39 40 42 43 45 44 43 41 43 46 48 47 47 49 51 51 49 48 49 51 52 52 53
41 43 44 43 45 48 47 45 45 41 37 34 32 34 35 35 32 31 32 32 33 34 35 35 36 38 40 42 45 47 47 48 48 49 51 51 50 48 48 50 51 49 49 50 51 52 53 53 54
40 41 42 43 45 47 46 44 46 44 39 36 37 36 36 36 34 35 36 37 39 40 45 44 43 44 47 50 49 50 50 51 51 54 53 50 48 50 51 49 48 48 49 51 52 53 54 55 56
40 39 41 44 45 48 48 48 48 46 43 41 40 40 40 40 39 38 39 40 40 45 47 47 49 52 53 56 56 54 54 54 54 52 50 50 50 49 47 48 49 49 50 52 53 54 54 55 55
45 43 43 46 46 49 49 53 49 47 46 44 43 42 42 42 41 41 42 41 42 53 57 55 56 58 59 59 59 57 54 52 51 51 51 49 47 47 48 48 49 50 52 53 54 54 54 54 55
41 41 43 46 48 48 50 53 48 47 46 47 45 43 43 42 42 42 43 47 52 57 56 56 60 62 62 62 59 54 51 51 52 51 49 49 48 48 48 49 51 52 53 54 54 54 54 54 55
48 44 42 45 46 49 45 48 51 47 47 46 44 44 44 44 44 43 46 52 58 54 57 61 61 59 59 58 53 50 48 48 49 50 49 49 50 50 51 52 53 53 54 55 55 55 54 55 54
44 51 46 45 48 51 50 46 48 47 48 47 45 45 47 47 46 47 48 54 57 59 59 56 56 53 50 50 51 49 48 47 47 48 48 49 51 51 52 52 53 54 56 56 56 56 56 55 55
48 45 51 51 49 49 50 48 50 50 45 44 45 47 47 49 49 50 52 54 58 57 56 52 51 51 52 52 51 49 47 48 48 48 49 50 51 52 52 53 54 55 55 56 57 57 56 55 53
49 53 45 51 53 50 47 46 46 45 45 43 47 49 51 52 52 52 54 56 53 52 54 55 56 55 53 52 51 50 49 50 51 51 51 52 52 51 52 53 54 55 57 57 57 56 55 56 55
51 49 47 48 51 53 55 55 49 48 50 51 50 51 51 53 56 56 55 53 54 54 53 52 51 52 52 50 50 50 50 50 51 52 52 52 51 51 52 54 56 57 57 56 56 55 55 55 55
48 45 53 50 47 50 50 51 52 52 51 52 53 56 58 58 53 52 51 50 50 51 52 53 52 51 49 49 48 49 51 52 51 51 51 52 53 54 55 56 58 57 56 55 54 55 54 52 51
56 58 55 51 52 53 52 55 56 56 57 60 60 59 57 53 51 51 51 50 50 53 53 53 51 51 50 50 52 52 51 52 53 53 54 54 55 56 56 58 57 54 53 52 51 49 50 50 50
Wind_Direction
218 223 231 240 250 246 225 246 238 208 164 142 129 116 107 99 93 86 80 77 76 75 72 75 81 85 87 85 74 61 49 41 35 32 35 42 53 56 44 29 22 22 12 6 330 311 310 314 312
216 223 231 245 245 242 226 252 253 208 169 157 139 124 114 107 96 84 78 77 75 71 68 69 71 72 75 80 83 76 68 62 47 33 27 22 20 25 29 33 26 3 349 345 336 326 308 303 301
217 228 237 244 243 233 227 253 231 211 178 172 149 135 124 114 103 92 82 78 74 69 64 62 60 57 57 54 53 58 59 58 52 37 31 19 7 1 355 355 356 345 336 324 314 312 312 308 305
225 232 239 236 238 242 238 253 229 213 202 180 171 156 138 121 110 99 87 82 78 70 64 60 55 50 47 44 39 34 31 28 29 30 19 11 358 350 341 333 328 323 319 317 315 311 309 304 301
228 230 234 233 242 243 241 233 226 216 207 209 181 178 157 142 132 122 101 88 75 67 60 54 49 43 37 30 27 25 21 19 15 8 4 360 351 339 328 321 317 313 313 312 310 308 305 302 298
229 231 237 235 243 242 246 239 222 223 213 215 208 198 177 169 162 156 131 107 88 67 48 36 31 26 22 15 11 10 7 5 4 360 356 354 352 347 341 331 323 313 304 299 298 298 299 301 300
234 236 241 241 243 244 245 238 220 220 226 214 223 216 199 197 190 189 184 155 123 93 358 353 357 359 357 355 353 351 348 347 347 346 343 342 341 339 337 335 330 324 317 310 306 301 297 294 292
240 242 243 245 248 250 250 244 228 223 230 218 229 231 215 212 210 212 214 214 230 260 277 293 308 316 324 328 333 335 334 332 330 329 327 330 330 329 328 328 325 323 322 321 317 311 307 303 299
242 245 249 248 249 247 245 248 234 230 232 230 231 238 232 224 221 229 232 237 238 261 279 285 292 298 303 310 314 317 319 320 319 320 320 322 322 321 322 322 320 317 316 316 315 313 311 311 309
247 249 247 247 253 248 240 246 239 239 235 238 237 239 246 241 235 241 246 251 260 262 272 286 293 296 300 301 302 305 308 313 311 309 311 313 313 312 312 311 313 313 312 312 311 310 309 308 306
247 249 249 247 247 252 239 241 243 236 230 236 242 244 246 249 248 249 252 256 263 273 275 278 284 289 292 294 295 298 303 304 304 305 304 305 306 308 308 308 308 307 306 307 308 308 307 305 304
250 248 249 248 244 245 247 237 245 245 242 237 239 242 248 249 249 252 255 257 261 266 274 281 286 288 288 289 292 294 297 299 300 302 300 300 298 301 306 307 306 304 303 305 306 305 304 304 304
250 249 249 248 245 245 244 240 244 246 243 240 241 243 250 253 257 258 260 263 265 268 270 273 278 283 285 287 289 291 294 296 298 298 297 296 295 298 303 304 301 299 299 300 301 301 301 301 301
250 251 248 245 247 244 245 241 242 247 249 245 241 242 249 254 257 261 264 269 275 278 278 278 278 279 283 287 289 290 292 295 295 294 294 294 294 294 296 297 297 297 298 298 299 299 299 299 299
251 251 247 245 246 245 244 241 242 244 246 247 248 248 250 253 259 262 266 272 277 277 279 280 282 286 289 290 291 293 293 293 293 294 294 294 292 291 292 295 295 296 296 295 296 295 295 296 296
251 250 247 245 247 247 244 240 235 243 251 250 250 247 253 259 262 266 270 273 276 279 280 281 288 291 291 293 294 293 292 291 292 291 290 290 294 295 293 294 294 293 293 294 293 293 294 294 294
251 251 252 246 245 248 244 241 240 241 246 248 251 254 257 259 261 265 270 274 273 274 278 285 289 292 296 297 295 293 292 294 291 288 287 288 292 294 292 292 292 291 292 291 292 293 294 293 293
252 250 249 243 243 246 246 242 242 244 245 243 247 254 255 259 264 268 268 268 270 274 282 290 289 290 293 293 294 295 295 293 290 288 288 291 293 291 289 290 291 291 291 292 292 293 292 292 293
250 250 249 245 240 242 243 242 242 245 247 247 247 249 253 257 262 267 269 272 274 279 288 295 293 293 295 297 299 298 295 292 290 289 289 291 291 289 288 288 289 288 289 291 292 292 293 293 293
248 247 248 248 244 241 240 240 242 244 245 245 246 251 257 260 264 268 271 273 276 286 288 285 287 293 298 298 297 295 292 290 289 289 289 288 287 287 287 286 286 288 290 291 292 292 292 292 293
245 247 244 247 245 241 238 235 236 242 245 244 246 249 254 260 264 268 272 276 280 284 284 283 285 290 296 297 296 295 291 290 290 288 287 286 286 285 286 287 289 290 291 291 291 291 292 293 293
246 247 248 246 244 242 240 238 235 238 242 244 247 250 255 259 264 270 275 279 285 285 286 287 288 290 293 295 295 294 291 289 288 287 286 284 283 284 285 286 287 289 289 290 291 292 292 293 291
242 248 246 244 244 243 242 244 232 240 241 246 248 251 255 260 264 268 275 280 282 280 281 284 287 289 292 293 292 288 287 287 286 286 284 284 284 284 286 288 288 289 289 290 291 292 291 292 292
238 244 250 248 246 247 243 245 243 239 244 247 250 253 256 257 260 264 268 279 278 279 282 286 288 290 291 289 286 285 285 285 285 283 282 283 285 287 289 290 290 291 290 290 290 292 291 292 292
244 241 251 253 250 248 246 246 253 246 245 247 250 254 257 261 264 267 269 273 276 279 285 286 288 288 287 285 284 283 282 281 280 281 282 285 287 288 288 288 288 288 289 291 292 292 291 291 291
240 243 247 248 250 249 249 243 244 251 250 250 253 257 261 261 265 270 274 276 280 283 285 285 285 284 285 285 283 282 280 280 282 283 285 285 286 287 288 288 289 289 290 291 290 290 290 290 291
237 239 245 247 248 249 248 249 248 251 257 257 258 259 259 262 268 273 277 280 282 282 281 283 283 283 282 280 280 279 280 282 284 284 285 286 287 288 288 289 289 289 289 289 289 290 291 292 292
238 239 240 242 245 247 251 253 255 255 259 263 264 262 265 268 272 278 283 284 284 284 282 281 280 278 277 276 276 279 281 282 283 284 285 285 287 287 288 288 287 287 287 287 288 289 291 292 292
237 242 243 247 247 246 248 248 249 252 256 261 265 268 270 273 278 280 280 281 280 278 278 278 276 276 275 276 278 278 279 280 281 282 284 285 286 287 287 286 285 286 286 287 288 289 290 290 291
239 240 243 242 243 249 251 252 254 257 259 265 269 270 274 279 282 281 281 278 277 276 276 275 275 275 275 277 279 279 280 281 282 283 284 285 286 286 285 285 286 285 285 287 287 289 291 293 292
Height
5875 5876 5876 5877 5881 5881 5882 5882 5881 5882 5882 5880 5880 5879 5878 5878 5878 5880 5877 5875 5875 5874 5873 5873 5872 5871 5871 5870 5870 5869 5869 5868 5866 5865 5864 5864 5864 5864 5864 5864 5864 5864 5863 5863 5863 5862 5862 5861 5860
5873 5874 5874 5875 5878 5880 5882 5882 5880 5881 5883 5880 5881 5880 5879 5879 5878 5879 5878 5877 5876 5876 5875 5874 5873 5872 5871 5871 5870 5870 5869 5868 5867 5867 5865 5865 5864 5863 5863 5863 5863 5863 5863 5863 5862 5861 5860 5859 5859
5871 5871 5872 5874 5874 5878 5879 5879 5880 5881 5882 5881 5880 5880 5880 5880 5880 5880 5879 5878 5877 5877 5877 5875 5874 5874 5872 5872 5871 5870 5869 5868 5867 5867 5866 5865 5864 5863 5862 5861 5860 5860 5860 5859 5859 5859 5858 5858 5857
5868 5869 5870 5871 5873 5876 5877 5877 5879 5880 5881 5881 5880 5880 5880 5880 5880 5880 5880 5879 5879 5878 5877 5877 5876 5875 5874 5873 5872 5871 5870 5869 5868 5867 5866 5865 5864 5862 5862 5861 5860 5859 5858 5857 5857 5856 5855 5854 5853
5865 5865 5866 5869 5870 5873 5875 5875 5877 5878 5881 5880 5880 5879 5879 5879 5879 5880 5880 5879 5879 5878 5878 5877 5877 5876 5875 5875 5874 5872 5871 5869 5868 5866 5865 5864 5863 5862 5861 5860 5859 5858 5857 5856 5854 5853 5852 5851 5850
5862 5862 5863 5866 5867 5869 5871 5872 5875 5876 5878 5879 5878 5878 5878 5878 5879 5879 5879 5879 5879 5879 5879 5878 5878 5877 5876 5875 5874 5873 5872 5870 5868 5867 5865 5864 5862 5861 5860 5859 5858 5856 5854 5853 5851 5850 5848 5847 5846
5859 5860 5859 5862 5863 5865 5867 5869 5873 5874 5874 5877 5876 5876 5877 5877 5877 5879 5879 5878 5878 5878 5878 5878 5878 5877 5876 5875 5874 5874 5872 5870 5869 5867 5865 5864 5862 5860 5859 5857 5856 5854 5852 5850 5848 5847 5845 5843 5841
5855 5856 5857 5858 5859 5861 5864 5865 5868 5871 5871 5875 5875 5873 5875 5875 5875 5876 5877 5877 5877 5877 5877 5877 5877 5876 5876 5875 5874 5873 5872 5870 5868 5866 5864 5863 5861 5859 5857 5855 5853 5851 5849 5847 5845 5843 5841 5839 5837
5851 5854 5854 5854 5855 5860 5860 5861 5863 5867 5868 5871 5873 5872 5873 5872 5873 5875 5875 5875 5876 5876 5876 5875 5875 5875 5875 5874 5872 5871 5870 5869 5867 5865 5863 5861 5859 5857 5855 5853 5851 5848 5846 5844 5841 5838 5836 5834 5832
5846 5849 5850 5851 5852 5855 5857 5857 5860 5863 5865 5867 5869 5870 5869 5870 5871 5872 5873 5873 5874 5875 5874 5873 5873 5872 5872 5871 5870 5869 5867 5866 5865 5863 5861 5858 5857 5854 5852 5850 5847 5845 5842 5840 5837 5834 5832 5829 5827
5841 5844 5844 5847 5850 5850 5853 5855 5856 5857 5861 5863 5865 5866 5866 5867 5868 5869 5869 5870 5871 5871 5871 5871 5870 5869 5868 5867 5866 5865 5864 5863 5861 5860 5858 5855 5853 5850 5848 5845 5843 5840 5838 5835 5833 5830 5827 5824 5821
5835 5837 5839 5842 5846 5846 5848 5851 5852 5854 5857 5859 5859 5860 5861 5863 5864 5865 5866 5867 5868 5868 5869 5867 5866 5864 5864 5863 5862 5860 5859 5857 5856 5854 5853 5850 5848 5846 5843 5841 5838 5835 5832 5829 5827 5824 5821 5818 5815
5828 5830 5833 5837 5840 5841 5843 5846 5846 5848 5852 5852 5854 5857 5856 5857 5858 5860 5860 5861 5863 5864 5864 5863 5862 5859 5858 5858 5857 5855 5854 5852 5850 5849 5847 5845 5843 5840 5838 5834 5831 5828 5826 5823 5820 5817 5814 5812 5808
5822 5823 5826 5830 5832 5835 5836 5841 5842 5845 5846 5846 5849 5851 5851 5853 5853 5855 5855 5856 5857 5857 5855 5854 5855 5856 5855 5853 5851 5849 5848 5846 5844 5842 5840 5838 5836 5834 5832 5829 5825 5822 5819 5816 5812 5809 5807 5804 5800
5814 5815 5818 5823 5825 5827 5830 5834 5840 5838 5838 5841 5844 5845 5845 5846 5847 5848 5849 5851 5851 5851 5850 5847 5847 5849 5848 5847 5845 5843 5841 5838 5836 5834 5832 5831 5829 5827 5824 5821 5818 5815 5811 5808 5805 5801 5799 5796 5793
5804 5807 5809 5817 5818 5820 5824 5829 5832 5831 5833 5836 5837 5839 5840 5841 5839 5842 5843 5845 5845 5844 5842 5842 5842 5841 5840 5840 5838 5836 5834 5831 5829 5828 5825 5823 5821 5818 5816 5813 5809 5806 5803 5800 5797 5793 5791 5787 5784
5795 5798 5803 5808 5810 5811 5816 5823 5823 5826 5828 5830 5831 5833 5834 5833 5833 5837 5838 5839 5838 5837 5836 5836 5836 5835 5832 5831 5829 5827 5825 5824 5821 5819 5817 5816 5813 5809 5805 5802 5800 5798 5794 5791 5788 5784 5781 5778 5775
5788 5790 5793 5798 5802 5804 5808 5815 5816 5819 5822 5824 5826 5828 5827 5826 5827 5831 5832 5831 5831 5830 5831 5831 5828 5827 5825 5823 5820 5818 5816 5814 5812 5811 5809 5805 5802 5799 5796 5792 5789 5786 5783 5781 5778 5775 5771 5768 5764
5779 5782 5785 5789 5793 5795 5800 5805 5809 5812 5816 5819 5821 5820 5820 5820 5823 5824 5823 5823 5823 5823 5822 5821 5819 5818 5816 5814 5812 5809 5807 5805 5803 5800 5797 5793 5790 5787 5784 5781 5778 5775 5772 5770 5767 5764 5760 5756 5753
5771 5775 5777 5781 5785 5788 5791 5798 5801 5804 5809 5812 5812 5813 5813 5813 5816 5816 5815 5815 5815 5813 5813 5812 5811 5809 5807 5805 5802 5800 5797 5794 5791 5788 5785 5781 5778 5775 5773 5770 5767 5765 5762 5759 5755 5752 5748 5744 5740
5763 5767 5768 5772 5776 5779 5782 5787 5791 5794 5799 5802 5805 5804 5805 5806 5807 5807 5807 5807 5806 5805 5803 5801 5801 5799 5796 5793 5791 5788 5785 5783 5780 5777 5774 5770 5767 5764 5761 5758 5756 5753 5749 5747 5744 5741 5736 5732 5728
5754 5759 5761 5764 5766 5770 5774 5777 5782 5786 5788 5792 5794 5796 5797 5798 5798 5799 5799 5798 5797 5795 5794 5792 5789 5787 5784 5782 5779 5775 5772 5770 5768 5765 5762 5759 5756 5753 5751 5748 5744 5741 5738 5735 5731 5728 5724 5719 5715
5746 5750 5752 5754 5758 5760 5765 5766 5777 5777 5780 5782 5784 5786 5787 5788 5789 5789 5789 5789 5787 5786 5784 5782 5779 5776 5773 5770 5767 5763 5760 5758 5756 5752 5750 5748 5745 5742 5740 5736 5733 5729 5726 5723 5719 5715 5711 5707 5703
5738 5741 5744 5746 5748 5751 5758 5758 5764 5770 5771 5774 5776 5777 5777 5778 5778 5777 5777 5777 5776 5775 5773 5770 5768 5765 5762 5758 5755 5751 5749 5746 5744 5742 5739 5736 5734 5731 5728 5725 5722 5718 5714 5709 5706 5702 5698 5693 5689
5728 5733 5736 5739 5739 5741 5748 5752 5755 5759 5762 5763 5764 5766 5766 5767 5766 5765 5764 5765 5765 5763 5761 5758 5755 5752 5749 5746 5743 5740 5737 5734 5732 5731 5728 5726 5723 5721 5717 5713 5709 5706 5701 5697 5693 5688 5683 5679 5675
5721 5724 5726 5727 5730 5733 5735 5741 5743 5744 5751 5754 5755 5755 5754 5754 5753 5752 5753 5753 5753 5750 5749 5746 5742 5740 5738 5735 5731 5728 5725 5723 5721 5720 5717 5714 5712 5708 5704 5700 5697 5692 5688 5683 5679 5675 5671 5667 5663
5710 5712 5718 5719 5721 5724 5726 5731 5734 5736 5736 5742 5744 5743 5741 5741 5741 5742 5742 5742 5740 5739 5736 5734 5730 5727 5725 5722 5720 5717 5714 5712 5710 5707 5704 5701 5698 5696 5692 5687 5683 5678 5674 5669 5665 5661 5658 5654 5650
5697 5704 5706 5707 5710 5714 5718 5720 5724 5727 5727 5726 5727 5728 5729 5730 5730 5730 5730 5728 5727 5725 5722 5720 5717 5714 5712 5710 5708 5705 5703 5700 5697 5694 5691 5689 5686 5682 5678 5674 5668 5664 5660 5656 5652 5648 5645 5642 5638
5690 5692 5698 5701 5703 5705 5708 5711 5712 5714 5716 5716 5713 5713 5715 5717 5719 5719 5718 5717 5715 5712 5708 5706 5703 5702 5700 5697 5695 5693 5690 5687 5685 5683 5679 5676 5673 5669 5664 5659 5654 5650 5647 5643 5640 5636 5632 5628 5626
5677 5682 5685 5687 5692 5695 5698 5701 5703 5704 5704 5703 5701 5702 5703 5705 5705 5703 5703 5702 5700 5697 5694 5692 5691 5689 5688 5687 5683 5680 5678 5676 5672 5669 5666 5662 5659 5654 5650 5645 5641 5638 5634 5630 5627 5623 5620 5616 5613